[[{"header":{"parameterUnit":"m.s-1","parameterCategory":2,"la1":30.2991,"la2":30.254,"lo1":-89.0895,"lo2":-89.0444,"dy":0.0017,"dx":0.0017,"nx":28,"ny":28,"refTime":"2023-11-03T03:00:00:Z","depth":"0","parameterNumber":2,"parameterNumberName":"U-component_of_CURRENTS"},"data":[0,0,0,0,0,0,0,0,0,0,0,0,0,0,0,0,0,0,0,0,0,0,0,0,0,0,0,0,0,0,0,0,0,0,0,0,0,0,0,0,0,0,0,0,0,0,0,0,0,0,0,0,0,0,0,0,0,0,-0.2903,-0.2903,0,-0.2893,-0.2893,-0.2893,-0.2796,-0.2794,-0.2791,-0.2789,-0.2731,-0.2731,-0.2731,0,0,0,0,0,0,0,0,0,0,0,0,0,-0.2856,-0.2857,-0.2903,-0.2903,-0.2904,-0.2894,-0.2893,-0.2893,-0.2796,-0.2794,-0.2791,-0.2789,-0.273,-0.2731,-0.2731,0,0,0,0,0,0,0,0,0,0,0,0,0,-0.2862,-0.2858,-0.2903,-0.2857,-0.2852,-0.2894,-0.2893,-0.2893,-0.2797,-0.2793,-0.279,-0.2787,-0.273,-0.2731,-0.2732,-0.2799,0,0,-0.2733,-0.2734,0,0,0,0,0,0,0,0,-0.2861,-0.2863,-0.2863,-0.286,-0.2855,-0.2845,-0.2855,-0.286,-0.2797,-0.2814,-0.2789,-0.2786,-0.2769,-0.2766,-0.2768,-0.2797,-0.2794,-0.2733,-0.2734,-0.2734,-0.2734,0,0,0,0,0,0,0,-0.2861,-0.2863,-0.2896,-0.2864,-0.2859,-0.2843,-0.2839,-0.2856,-0.2806,-0.2813,-0.2806,-0.2812,-0.2765,-0.2767,-0.2765,-0.2793,-0.2733,-0.2734,-0.2734,-0.2735,-0.2806,-0.2808,0,0,0,0,0,0,-0.2872,-0.2863,-0.2896,-0.2896,-0.2854,-0.2846,-0.2842,-0.2849,-0.2807,-0.2799,-0.2814,-0.2807,-0.2768,-0.2765,-0.2763,-0.2777,-0.2734,-0.2735,-0.2735,-0.2805,-0.2806,-0.2808,0,0,0,0,0,0,-0.2871,-0.2875,-0.2897,-0.2881,-0.2883,-0.2851,-0.2859,-0.2851,-0.284,-0.2809,-0.2799,-0.281,-0.2765,-0.2762,-0.2767,-0.2776,-0.2735,-0.2736,-0.2803,-0.2805,-0.2807,-0.2846,0,0,0,0,0,0,-0.287,-0.2875,-0.2878,-0.2883,-0.2885,-0.2914,-0.2862,-0.2853,-0.285,-0.284,-0.2804,-0.2795,-0.2762,-0.2767,-0.2768,-0.2776,-0.2736,-0.2801,-0.2804,-0.2807,-0.2843,-0.2849,-0.2855,0,0,0,0,0,-0.2868,-0.2885,-0.2878,-0.2882,-0.2892,-0.2915,-0.2915,-0.2878,-0.2853,-0.2855,-0.2829,-0.2795,-0.2785,-0.2769,-0.277,-0.2778,-0.2799,-0.2803,-0.2806,-0.284,-0.2848,-0.2854,0,0,0,0,0,0,-0.2864,-0.2878,-0.2869,-0.2888,-0.2899,-0.2899,-0.29,-0.289,-0.2875,-0.286,-0.2823,-0.2815,-0.2821,-0.2809,-0.2793,-0.281,-0.2785,-0.2789,-0.281,-0.2817,-0.2823,-0.2843,-0.2737,0,0,0,0,0,-0.2871,-0.2881,-0.2898,-0.2911,-0.292,-0.2916,-0.292,-0.2905,-0.2899,-0.2887,-0.2868,-0.285,-0.2844,-0.2835,-0.2832,-0.2854,-0.2812,-0.2859,-0.2865,-0.287,-0.289,-0.2797,-0.2794,-0.2819,-0.2819,-0.2819,0,0,-0.2872,-0.2882,-0.2886,-0.2911,-0.2914,-0.2951,-0.2908,-0.2922,-0.2947,-0.2889,-0.2906,-0.2877,-0.2858,-0.2865,-0.2867,-0.285,-0.2849,-0.2875,-0.2879,-0.2896,-0.28,-0.2797,-0.2794,-0.2822,-0.2821,-0.2821,0,0,-0.2902,-0.2893,-0.2923,-0.2944,-0.2964,-0.2967,-0.2977,-0.2987,-0.2975,-0.3001,-0.2957,-0.2932,-0.2942,-0.2911,-0.2902,-0.295,-0.2887,-0.2953,-0.2993,-0.2902,-0.2898,-0.2894,-0.286,-0.2852,-0.295,-0.295,-0.295,0,-0.2905,-0.2948,-0.2935,-0.2983,-0.3002,-0.2983,-0.303,-0.3037,-0.3044,-0.3031,-0.3009,-0.2979,-0.2962,-0.2949,-0.2968,-0.296,-0.2917,-0.296,-0.2905,-0.29,-0.2896,-0.2861,-0.2852,-0.2952,-0.2952,-0.2952,-0.2952,0,-0.2964,-0.3007,-0.3028,-0.3078,-0.3094,-0.3129,-0.3143,-0.3148,-0.3131,-0.3117,-0.3093,-0.3056,-0.3024,-0.302,-0.3019,-0.2986,-0.2972,-0.2921,-0.2877,-0.2894,-0.2859,-0.2849,-0.2955,-0.2955,-0.2954,-0.2953,0,0,-0.2956,-0.3053,-0.306,-0.3095,-0.3146,-0.3157,-0.3204,-0.3217,-0.3205,-0.3194,-0.3164,-0.3162,-0.3104,-0.3094,-0.3058,-0.3002,-0.2947,-0.2966,-0.296,-0.2918,-0.2781,-0.2733,-0.2717,-0.2868,-0.2866,-0.2864,-0.2776,0,-0.3009,-0.3105,-0.3141,-0.322,-0.3264,-0.3269,-0.3298,-0.3295,-0.3272,-0.3237,-0.3178,-0.3134,-0.3142,-0.3098,-0.3054,-0.2959,-0.292,-0.2979,-0.2784,-0.2781,-0.2721,-0.2703,-0.2592,-0.2499,-0.2766,-0.2764,-0.2763,0,-0.3058,-0.311,-0.3203,-0.3268,-0.3282,-0.3318,-0.3309,-0.3336,-0.3294,-0.3263,-0.3212,-0.3153,-0.3097,-0.3074,-0.2945,-0.2976,-0.2911,-0.2841,-0.2833,-0.2769,-0.2712,-0.2522,-0.247,-0.2444,-0.2747,-0.2748,-0.275,0,-0.3027,-0.3149,-0.3211,-0.3242,-0.3314,-0.3329,-0.3343,-0.3324,-0.3298,-0.3255,-0.3191,-0.3136,-0.3048,-0.297,-0.2878,-0.2889,-0.2716,-0.2689,-0.2597,-0.2595,-0.2456,-0.2443,-0.2338,-0.26,-0.26,-0.2601,-0.2601,0,-0.3057,-0.3101,-0.3198,-0.3225,-0.324,-0.3303,-0.3289,-0.3289,-0.3255,-0.3173,-0.3181,-0.3088,-0.3006,-0.2905,-0.2856,-0.2701,-0.2689,-0.2611,-0.2554,-0.2472,-0.2463,-0.2398,-0.2432,-0.2597,-0.2598,-0.2599,-0.2599,0,-0.2998,-0.3088,-0.3138,-0.3216,-0.3229,-0.3218,-0.3227,-0.3194,-0.3195,-0.3084,-0.3055,-0.3002,-0.2878,-0.2821,-0.267,-0.2626,-0.2458,-0.2467,-0.2417,-0.2357,-0.2244,-0.2285,-0.2157,-0.2099,-0.2336,-0.2334,-0.2333,0,-0.2963,-0.3001,-0.3078,-0.3069,-0.3098,-0.3107,-0.3087,-0.3128,-0.3075,-0.3006,-0.2915,-0.2823,-0.2717,-0.2549,-0.2452,-0.2351,-0.2361,-0.2204,-0.2205,-0.2226,-0.2229,-0.2266,-0.223,-0.2049,-0.2046,-0.2043,-0.204,0,-0.2863,-0.2903,-0.2932,-0.2918,-0.2911,-0.2895,-0.2875,-0.2831,-0.2835,-0.2776,-0.266,-0.2596,-0.2469,-0.2309,-0.222,-0.2153,-0.2149,-0.2136,-0.2126,-0.1983,-0.2042,-0.1961,-0.2179,-0.2012,-0.2015,-0.2017,-0.2019,-0.202,-0.274,-0.2725,-0.2756,-0.2723,-0.2705,-0.2627,-0.2545,-0.2543,-0.2457,-0.2311,-0.2377,-0.2253,-0.2189,-0.2043,-0.1979,-0.185,-0.1932,-0.1791,-0.1839,-0.1876,-0.1816,-0.202,-0.1807,-0.1808,-0.181,-0.1811,-0.1812,0,-0.2565,-0.2572,-0.254,-0.2481,-0.2367,-0.2429,-0.2342,-0.2239,-0.2096,-0.2064,-0.1977,-0.1903,-0.178,-0.1757,-0.1653,-0.1574,-0.1547,-0.1551,-0.1565,-0.1539,-0.1657,-0.1641,-0.1418,-0.1418,-0.1418,-0.1418,-0.1418,-0.1418,-0.2475,-0.2399,-0.2394,-0.2153,-0.2093,-0.1894,-0.1809,-0.1714,-0.1662,-0.1533,-0.1503,-0.1529,-0.1563,-0.1651,-0.1535,-0.1456,-0.1433,-0.1386,-0.1435,-0.1523,-0.155,-0.1575,-0.1563,-0.1328,-0.1328,-0.1235,-0.1234,-0.1234]},{"header":{"parameterUnit":"m.s-1","parameterCategory":2,"la1":30.2991,"la2":30.254,"lo1":-89.0895,"lo2":-89.0444,"dy":0.0017,"dx":0.0017,"nx":28,"ny":28,"refTime":"2023-11-03T03:00:00:Z","depth":"0","parameterNumber":3,"parameterNumberName":"V-component_of_CURRENTS"},"data":[0,0,0,0,0,0,0,0,0,0,0,0,0,0,0,0,0,0,0,0,0,0,0,0,0,0,0,0,0,0,0,0,0,0,0,0,0,0,0,0,0,0,0,0,0,0,0,0,0,0,0,0,0,0,0,0,0,0,-0.0837,-0.0836,0,-0.0713,-0.0711,-0.0709,-0.059,-0.0589,-0.0588,-0.0588,-0.0331,-0.0325,-0.0319,0,0,0,0,0,0,0,0,0,0,0,0,0,-0.0893,-0.0893,-0.0837,-0.0836,-0.0835,-0.0713,-0.0711,-0.0709,-0.0591,-0.0589,-0.0588,-0.0587,-0.0333,-0.0326,-0.0319,0,0,0,0,0,0,0,0,0,0,0,0,0,-0.0824,-0.0893,-0.0837,-0.0766,-0.0759,-0.0714,-0.0711,-0.0708,-0.0591,-0.0589,-0.0588,-0.0587,-0.0335,-0.0327,-0.0318,-0.0292,0,0,-0.0291,-0.0287,0,0,0,0,0,0,0,0,-0.0828,-0.0821,-0.0778,-0.0771,-0.0763,-0.0671,-0.0637,-0.0564,-0.0591,-0.0648,-0.0587,-0.0586,-0.0437,-0.042,-0.0393,-0.028,-0.0269,-0.029,-0.0285,-0.0281,-0.0278,0,0,0,0,0,0,0,-0.0833,-0.0825,-0.0782,-0.0777,-0.0768,-0.0714,-0.0702,-0.0622,-0.0545,-0.0643,-0.0636,-0.0632,-0.0431,-0.0402,-0.0386,-0.0265,-0.029,-0.0282,-0.0277,-0.0273,-0.0043,-0.0042,0,0,0,0,0,0,-0.0866,-0.0831,-0.0786,-0.0779,-0.0799,-0.0715,-0.0701,-0.0697,-0.0549,-0.0528,-0.0633,-0.0627,-0.0418,-0.0397,-0.0377,-0.0298,-0.0281,-0.0272,-0.0267,-0.0044,-0.0043,-0.0042,0,0,0,0,0,0,-0.0868,-0.0863,-0.0791,-0.0806,-0.0794,-0.0716,-0.0712,-0.0695,-0.0657,-0.0544,-0.0519,-0.0611,-0.0416,-0.0389,-0.0293,-0.0288,-0.0268,-0.026,-0.0045,-0.0044,-0.0043,-0.0164,0,0,0,0,0,0,-0.087,-0.0865,-0.0871,-0.0809,-0.0795,-0.0763,-0.0713,-0.0694,-0.066,-0.065,-0.0517,-0.0492,-0.0413,-0.0307,-0.0284,-0.0275,-0.0253,-0.0046,-0.0044,-0.0043,-0.0161,-0.0168,-0.0173,0,0,0,0,0,-0.0872,-0.0894,-0.0872,-0.0867,-0.0807,-0.0764,-0.075,-0.0686,-0.0661,-0.0645,-0.0552,-0.0496,-0.0281,-0.0299,-0.0273,-0.0261,-0.0047,-0.0045,-0.0043,-0.0159,-0.0166,-0.0173,0,0,0,0,0,0,-0.0917,-0.0883,-0.0858,-0.0866,-0.0818,-0.0745,-0.0739,-0.0693,-0.061,-0.0601,-0.0486,-0.0454,-0.0368,-0.0296,-0.0319,-0.0188,-0.0154,-0.0147,-0.0251,-0.0257,-0.0263,-0.0292,-0.0246,0,0,0,0,0,-0.0936,-0.0945,-0.0889,-0.0895,-0.088,-0.081,-0.0786,-0.0742,-0.0668,-0.0631,-0.0539,-0.0437,-0.0343,-0.0288,-0.0198,-0.0129,-0.0073,-0.0102,-0.0108,-0.0114,-0.0117,-0.0028,-0.0027,-0.0036,-0.0036,-0.0036,0,0,-0.096,-0.0941,-0.0947,-0.0906,-0.0869,-0.0853,-0.079,-0.0765,-0.0737,-0.0616,-0.055,-0.0456,-0.0329,-0.025,-0.0205,-0.0187,-0.0084,-0.0111,-0.0118,-0.0117,-0.0026,-0.0025,-0.0025,-0.0035,-0.0035,-0.0036,0,0,-0.1022,-0.0993,-0.1023,-0.0986,-0.0944,-0.0893,-0.089,-0.0817,-0.0769,-0.07,-0.0602,-0.0507,-0.0374,-0.0279,-0.0213,-0.0195,-0.0121,-0.0166,-0.0213,-0.0128,-0.0127,-0.0126,-0.0079,-0.0073,-0.0166,-0.0166,-0.0166,0,-0.1052,-0.1071,-0.1021,-0.1029,-0.1006,-0.0918,-0.0925,-0.0866,-0.0766,-0.0719,-0.0694,-0.0484,-0.0387,-0.0267,-0.0262,-0.021,-0.0164,-0.0205,-0.0139,-0.0136,-0.0133,-0.0085,-0.0076,-0.0172,-0.0171,-0.0171,-0.017,0,-0.1127,-0.1131,-0.1144,-0.1122,-0.1087,-0.1078,-0.0996,-0.0946,-0.0882,-0.0809,-0.069,-0.0559,-0.043,-0.0386,-0.0318,-0.0234,-0.0213,-0.0165,-0.0135,-0.014,-0.0088,-0.0077,-0.018,-0.0178,-0.0176,-0.0175,0,0,-0.121,-0.1204,-0.1203,-0.1199,-0.1133,-0.1108,-0.1064,-0.0982,-0.0934,-0.0834,-0.076,-0.0609,-0.0534,-0.0455,-0.0352,-0.0278,-0.0225,-0.0225,-0.0218,-0.0203,-0.0066,-0.0015,0.0003,-0.017,-0.0168,-0.0167,-0.0051,0,-0.1277,-0.1318,-0.1288,-0.1294,-0.1296,-0.12,-0.1159,-0.1068,-0.0971,-0.0874,-0.0731,-0.0621,-0.0559,-0.0494,-0.0414,-0.0248,-0.0195,-0.0262,-0.0041,-0.0035,-0.0008,0.0018,0.0057,0.0167,-0.004,-0.0038,-0.0036,0,-0.1355,-0.136,-0.1402,-0.136,-0.1352,-0.1337,-0.1232,-0.1185,-0.1028,-0.0951,-0.0825,-0.0702,-0.0554,-0.0514,-0.0282,-0.0329,-0.0224,-0.0118,-0.0109,-0.0009,0.0039,0.015,0.0197,0.0343,-0.0018,-0.0019,-0.0021,0,-0.1426,-0.1431,-0.1467,-0.1454,-0.14,-0.1385,-0.1339,-0.1206,-0.1146,-0.0992,-0.0916,-0.0739,-0.062,-0.0468,-0.0252,-0.0264,-0.0011,0.001,0.0142,0.0145,0.0252,0.0262,0.0452,0.0137,0.0136,0.0136,0.0136,0,-0.1502,-0.1516,-0.1503,-0.1514,-0.151,-0.1453,-0.1422,-0.1334,-0.1214,-0.112,-0.0965,-0.084,-0.0601,-0.0415,-0.0263,-0.0015,-0.0016,0.0139,0.0192,0.0209,0.0213,0.0406,0.0459,0.014,0.014,0.0139,0.0138,0,-0.1572,-0.1579,-0.1597,-0.1565,-0.1552,-0.1544,-0.1479,-0.1441,-0.1323,-0.1192,-0.1143,-0.0894,-0.0642,-0.0415,-0.0133,-0.0002,0.0314,0.0282,0.0266,0.0315,0.0567,0.0611,0.0851,0.0948,0.0447,0.0449,0.0451,0,-0.1605,-0.1637,-0.1634,-0.164,-0.163,-0.1615,-0.1596,-0.15,-0.1434,-0.1205,-0.1127,-0.0867,-0.0643,-0.0231,0.0046,0.0319,0.042,0.0494,0.0487,0.0597,0.0686,0.0704,0.0769,0.0567,0.057,0.0572,0.0573,0,-0.1643,-0.1661,-0.1678,-0.1694,-0.1694,-0.1676,-0.1626,-0.1586,-0.1442,-0.1314,-0.1074,-0.0887,-0.047,-0.0097,0.0248,0.0403,0.0614,0.0546,0.0693,0.0824,0.0829,0.0941,0.0439,0.0592,0.0591,0.0589,0.0588,0.0587,-0.1656,-0.168,-0.1717,-0.1724,-0.1724,-0.1687,-0.1646,-0.1566,-0.1447,-0.1184,-0.104,-0.0706,-0.0218,0.0302,0.0484,0.0854,0.0798,0.0949,0.0997,0.1007,0.1101,0.0616,0.0813,0.0812,0.0811,0.0811,0.0811,0,-0.1658,-0.1701,-0.1728,-0.1723,-0.1706,-0.17,-0.1622,-0.1538,-0.1371,-0.1124,-0.0883,-0.0306,0.0171,0.0595,0.1108,0.1296,0.1331,0.1372,0.1415,0.1465,0.1078,0.1084,0.1311,0.131,0.131,0.131,0.131,0.131,-0.1668,-0.1712,-0.173,-0.1692,-0.1675,-0.1603,-0.1542,-0.1403,-0.1211,-0.0792,-0.0437,-0.016,0.0402,0.1213,0.167,0.1698,0.1859,0.1827,0.1921,0.1652,0.1615,0.1581,0.1601,0.1932,0.1933,0.2294,0.2298,0.2301]}],[{"header":{"parameterUnit":"m.s-1","parameterCategory":2,"la1":30.2991,"la2":30.254,"lo1":-89.0895,"lo2":-89.0444,"dy":0.0017,"dx":0.0017,"nx":28,"ny":28,"refTime":"2023-11-03T03:00:00:Z","depth":"2","parameterNumber":2,"parameterNumberName":"U-component_of_CURRENTS"},"data":[0,0,0,0,0,0,0,0,0,0,0,0,0,0,0,0,0,0,0,0,0,0,0,0,0,0,0,0,0,0,0,0,0,0,0,0,0,0,0,0,0,0,0,0,0,0,0,0,0,0,0,0,0,0,0,0,0,0,-0.263,-0.2631,0,-0.2687,-0.2688,-0.2688,-0.2694,-0.2693,-0.2693,-0.2692,-0.2569,-0.2566,-0.2564,0,0,0,0,0,0,0,0,0,0,0,0,0,-0.2543,-0.2545,-0.263,-0.2631,-0.2631,-0.2687,-0.2688,-0.2689,-0.2694,-0.2693,-0.2693,-0.2692,-0.257,-0.2567,-0.2563,0,0,0,0,0,0,0,0,0,0,0,0,0,-0.2588,-0.2545,-0.263,-0.2642,-0.2643,-0.2687,-0.2688,-0.2689,-0.2694,-0.2693,-0.2693,-0.2692,-0.2571,-0.2567,-0.2563,-0.2553,0,0,-0.255,-0.2548,0,0,0,0,0,0,0,0,-0.2585,-0.2591,-0.2639,-0.2641,-0.2643,-0.2683,-0.2612,-0.2635,-0.2694,-0.2674,-0.2692,-0.2692,-0.2591,-0.2586,-0.26,-0.2547,-0.2542,-0.255,-0.2547,-0.2545,-0.2544,0,0,0,0,0,0,0,-0.2582,-0.2589,-0.2652,-0.264,-0.2642,-0.265,-0.2655,-0.2617,-0.2633,-0.2676,-0.2677,-0.2684,-0.2591,-0.2604,-0.2596,-0.254,-0.255,-0.2546,-0.2543,-0.2542,-0.2492,-0.2493,0,0,0,0,0,0,-0.2577,-0.2586,-0.265,-0.2654,-0.2612,-0.2652,-0.2658,-0.267,-0.2637,-0.2633,-0.2685,-0.2684,-0.2612,-0.2601,-0.2592,-0.2567,-0.2545,-0.2541,-0.2539,-0.2491,-0.2492,-0.2494,0,0,0,0,0,0,-0.2575,-0.2582,-0.2648,-0.2621,-0.263,-0.2654,-0.2668,-0.2672,-0.2705,-0.2646,-0.2638,-0.2716,-0.2611,-0.2598,-0.2538,-0.2562,-0.254,-0.2536,-0.249,-0.2491,-0.2493,-0.2522,0,0,0,0,0,0,-0.2572,-0.2581,-0.2594,-0.2621,-0.2631,-0.2682,-0.2669,-0.2674,-0.271,-0.2711,-0.267,-0.2657,-0.2609,-0.2544,-0.2534,-0.2555,-0.2532,-0.2488,-0.249,-0.2492,-0.2519,-0.2524,-0.2529,0,0,0,0,0,-0.2569,-0.2593,-0.2594,-0.2602,-0.2646,-0.2683,-0.269,-0.2703,-0.2713,-0.273,-0.2676,-0.2659,-0.2553,-0.254,-0.2528,-0.2549,-0.2487,-0.249,-0.2492,-0.2517,-0.2523,-0.2529,0,0,0,0,0,0,-0.2558,-0.2597,-0.2598,-0.2631,-0.2656,-0.2684,-0.2704,-0.2723,-0.2706,-0.2703,-0.2645,-0.2627,-0.2593,-0.257,-0.2558,-0.2548,-0.253,-0.253,-0.2554,-0.2559,-0.2564,-0.2575,-0.2529,0,0,0,0,0,-0.2562,-0.2585,-0.2621,-0.264,-0.2661,-0.269,-0.271,-0.2728,-0.2718,-0.2715,-0.268,-0.2642,-0.2597,-0.2574,-0.2535,-0.2514,-0.2486,-0.2533,-0.2538,-0.2542,-0.2546,-0.2494,-0.2493,-0.2502,-0.2502,-0.2502,0,0,-0.2547,-0.2582,-0.2585,-0.2639,-0.266,-0.2669,-0.2701,-0.2745,-0.2745,-0.2698,-0.2677,-0.265,-0.2594,-0.2563,-0.2551,-0.2544,-0.253,-0.2545,-0.2548,-0.255,-0.2496,-0.2495,-0.2494,-0.2504,-0.2504,-0.2504,0,0,-0.2512,-0.2579,-0.2567,-0.2607,-0.2658,-0.2683,-0.2703,-0.2745,-0.2763,-0.274,-0.2709,-0.27,-0.2628,-0.2609,-0.2581,-0.2597,-0.2552,-0.2597,-0.2625,-0.2574,-0.2572,-0.257,-0.2549,-0.2545,-0.2603,-0.2603,-0.2603,0,-0.2486,-0.2503,-0.2569,-0.258,-0.262,-0.2686,-0.2694,-0.2716,-0.2728,-0.2733,-0.273,-0.2667,-0.2653,-0.2605,-0.2625,-0.2609,-0.2566,-0.26,-0.2577,-0.2574,-0.2572,-0.2551,-0.2545,-0.2605,-0.2604,-0.2604,-0.2604,0,-0.2457,-0.2465,-0.248,-0.2507,-0.2555,-0.2599,-0.2647,-0.2674,-0.2708,-0.272,-0.271,-0.2687,-0.2655,-0.2668,-0.2646,-0.2636,-0.2609,-0.2582,-0.2556,-0.2572,-0.255,-0.2544,-0.2607,-0.2606,-0.2606,-0.2605,0,0,-0.2383,-0.2443,-0.2449,-0.2438,-0.2551,-0.2569,-0.2601,-0.264,-0.2652,-0.2666,-0.2669,-0.2652,-0.268,-0.2656,-0.2654,-0.2638,-0.2621,-0.2611,-0.2607,-0.2579,-0.2508,-0.2447,-0.2435,-0.2561,-0.256,-0.2559,-0.2505,0,-0.2331,-0.2349,-0.2409,-0.2392,-0.2395,-0.2497,-0.2529,-0.2576,-0.2618,-0.2633,-0.2652,-0.2646,-0.2659,-0.2666,-0.2649,-0.2626,-0.2602,-0.2639,-0.2507,-0.2504,-0.2438,-0.2425,-0.2252,-0.2184,-0.2499,-0.2498,-0.2497,0,-0.23,-0.2294,-0.232,-0.2341,-0.2363,-0.2384,-0.2477,-0.2508,-0.2568,-0.2599,-0.2607,-0.2622,-0.2633,-0.264,-0.2582,-0.259,-0.256,-0.2538,-0.2533,-0.246,-0.2431,-0.2217,-0.2161,-0.2487,-0.2488,-0.2488,-0.2489,0,-0.224,-0.2241,-0.2274,-0.2296,-0.2333,-0.2364,-0.2415,-0.2505,-0.2544,-0.2588,-0.2604,-0.2599,-0.2606,-0.2554,-0.2548,-0.2548,-0.2469,-0.2458,-0.2368,-0.2365,-0.2187,-0.2169,-0.2397,-0.2397,-0.2397,-0.2397,-0.2397,0,-0.22,-0.2173,-0.2243,-0.2229,-0.2257,-0.2323,-0.2374,-0.2429,-0.2508,-0.2532,-0.2589,-0.2583,-0.2577,-0.2544,-0.2523,-0.2428,-0.2439,-0.2368,-0.2335,-0.2197,-0.2181,-0.2419,-0.2422,-0.2395,-0.2396,-0.2396,-0.2396,0,-0.2103,-0.217,-0.2148,-0.2194,-0.2227,-0.2254,-0.2357,-0.2372,-0.2465,-0.2495,-0.251,-0.2558,-0.2512,-0.2496,-0.2431,-0.2387,-0.2318,-0.2278,-0.2141,-0.2092,-0.2258,-0.2264,-0.2165,-0.2162,-0.216,-0.2158,-0.2156,0,-0.2072,-0.2067,-0.2138,-0.2146,-0.2161,-0.221,-0.2264,-0.2363,-0.2383,-0.2459,-0.2458,-0.2456,-0.2414,-0.2322,-0.2243,-0.2158,-0.2237,-0.1964,-0.1944,-0.2251,-0.2229,-0.2239,-0.2248,-0.1731,-0.1726,-0.1722,-0.1719,0,-0.1946,-0.2018,-0.2008,-0.2055,-0.2096,-0.2121,-0.2188,-0.2202,-0.2299,-0.2313,-0.2314,-0.2293,-0.2225,-0.2056,-0.1975,-0.1912,-0.1968,-0.1877,-0.2186,-0.1827,-0.1839,-0.182,-0.1842,-0.1682,-0.1685,-0.1688,-0.169,-0.1692,-0.1894,-0.1888,-0.1935,-0.1954,-0.1993,-0.2009,-0.1985,-0.2029,-0.2044,-0.2022,-0.2096,-0.1992,-0.1979,-0.1748,-0.1656,-0.159,-0.1727,-0.165,-0.1663,-0.1681,-0.165,-0.1657,-0.1463,-0.1465,-0.1467,-0.1469,-0.1471,0,-0.1807,-0.1811,-0.1819,-0.1836,-0.1813,-0.1882,-0.1902,-0.184,-0.1785,-0.1787,-0.1739,-0.1552,-0.1432,-0.1429,-0.1261,-0.1236,-0.1231,-0.1193,-0.1179,-0.1216,-0.1249,-0.1198,-0.0889,-0.0887,-0.0886,-0.0884,0,0,-0.1758,-0.1727,-0.1722,-0.1653,-0.1653,-0.1575,-0.155,-0.1486,-0.1448,-0.1341,-0.1272,-0.1325,-0.1371,-0.112,-0.107,-0.0946,-0.1071,-0.0901,-0.1366,-0.1385,-0.1416,-0.1509,-0.1471,0,0,0,0,0]},{"header":{"parameterUnit":"m.s-1","parameterCategory":2,"la1":30.2991,"la2":30.254,"lo1":-89.0895,"lo2":-89.0444,"dy":0.0017,"dx":0.0017,"nx":28,"ny":28,"refTime":"2023-11-03T03:00:00:Z","depth":"2","parameterNumber":3,"parameterNumberName":"V-component_of_CURRENTS"},"data":[0,0,0,0,0,0,0,0,0,0,0,0,0,0,0,0,0,0,0,0,0,0,0,0,0,0,0,0,0,0,0,0,0,0,0,0,0,0,0,0,0,0,0,0,0,0,0,0,0,0,0,0,0,0,0,0,0,0,0.0008,0.0009,0,0.0036,0.0037,0.0037,-0.0001,-0.0002,-0.0003,-0.0005,0.0034,0.0036,0.0038,0,0,0,0,0,0,0,0,0,0,0,0,0,-0.0132,-0.0129,0.0008,0.0009,0.0009,0.0036,0.0037,0.0037,-0.0001,-0.0002,-0.0004,-0.0005,0.0033,0.0035,0.0038,0,0,0,0,0,0,0,0,0,0,0,0,0,-0.0085,-0.0128,0.0008,-0.0005,-0.0006,0.0036,0.0037,0.0037,-0.0,-0.0002,-0.0004,-0.0006,0.0032,0.0035,0.0038,0.0096,0,0,0.0048,0.005,0,0,0,0,0,0,0,0,-0.0088,-0.008,-0.0004,-0.0004,-0.0005,0.0013,0.0001,0.0058,0.0,-0.0004,-0.0005,-0.0007,0.003,0.0033,0.0041,0.0098,0.0099,0.0049,0.0051,0.0052,0.0053,0,0,0,0,0,0,0,-0.0091,-0.0082,0.0018,-0.0003,-0.0004,-0.0031,-0.0026,0.0011,0.0022,-0.0004,-0.0006,-0.0,0.0029,0.0038,0.0042,0.01,0.0049,0.0052,0.0054,0.0055,0.0137,0.0138,0,0,0,0,0,0,-0.0086,-0.0084,0.0017,0.0019,-0.005,-0.0027,-0.0021,0.0008,0.0022,0.0022,0.0001,-0.0002,0.0033,0.0038,0.0043,0.0025,0.0052,0.0055,0.0057,0.0137,0.0137,0.0138,0,0,0,0,0,0,-0.0088,-0.0076,0.0016,-0.0033,-0.0023,-0.0022,0.0011,0.001,-0.0023,0.0026,0.0025,-0.0034,0.0032,0.0038,0.0035,0.0029,0.0057,0.006,0.0137,0.0137,0.0138,0.0045,0,0,0,0,0,0,-0.0092,-0.0076,-0.007,-0.0031,-0.002,0.0025,0.0013,0.0012,-0.0013,-0.0018,-0.0003,0.0,0.0031,0.0029,0.0038,0.0034,0.0062,0.0137,0.0137,0.0137,0.0048,0.0042,0.0037,0,0,0,0,0,-0.0097,-0.0071,-0.0069,-0.0058,-0.0004,0.0025,0.0027,0.002,-0.0013,-0.002,-0.0028,-0.0003,0.0039,0.0031,0.0041,0.0039,0.0136,0.0137,0.0137,0.005,0.0043,0.0037,0,0,0,0,0,0,-0.0137,-0.0071,-0.0069,-0.0027,-0.0013,0.0018,0.0016,-0.0002,-0.0013,-0.0026,-0.0009,-0.0004,-0.0007,0.0033,0.0024,0.0068,0.0097,0.01,0.0027,0.0021,0.0016,0.0016,0.0065,0,0,0,0,0,-0.0138,-0.0098,-0.0057,-0.0031,-0.0021,-0.0016,-0.0014,-0.0016,-0.0012,-0.0022,-0.0025,-0.0008,0.0014,0.0024,0.0053,0.0075,0.0122,0.0086,0.008,0.0075,0.0084,0.0147,0.0148,0.0139,0.0139,0.0139,0,0,-0.0151,-0.0107,-0.009,-0.0038,-0.0026,-0.0043,-0.0021,-0.0014,-0.0046,-0.001,-0.0066,-0.0035,0.0013,0.0028,0.0034,0.0053,0.0099,0.0076,0.0071,0.0083,0.0148,0.0149,0.0149,0.014,0.014,0.014,0,0,-0.0168,-0.0114,-0.0105,-0.0095,-0.0072,-0.0063,-0.0076,-0.0067,-0.0077,-0.0103,-0.0087,-0.0066,-0.0052,-0.0008,0.0015,0.0005,0.0062,0.0017,-0.0004,0.0056,0.0057,0.0059,0.0099,0.0105,0.0023,0.0023,0.0022,0,-0.0193,-0.0169,-0.0105,-0.0113,-0.0122,-0.0091,-0.0125,-0.012,-0.0127,-0.0121,-0.0136,-0.0094,-0.0065,-0.0022,-0.0028,-0.0008,0.003,0.0007,0.0048,0.005,0.0054,0.0095,0.0103,0.0018,0.0019,0.0019,0.002,0,-0.0224,-0.0217,-0.021,-0.0212,-0.0217,-0.0218,-0.021,-0.0217,-0.0234,-0.0224,-0.02,-0.0151,-0.0117,-0.0099,-0.0073,-0.0023,-0.0004,0.0022,0.0056,0.0048,0.0093,0.0102,0.0012,0.0013,0.0015,0.0016,0,0,-0.0234,-0.0231,-0.0235,-0.0262,-0.0264,-0.0269,-0.03,-0.0293,-0.0307,-0.029,-0.0292,-0.0238,-0.0189,-0.0156,-0.0101,-0.0042,-0.0001,-0.0005,0.0,0.0022,0.0119,0.0154,0.0168,0.0029,0.0031,0.0032,0.0132,0,-0.0283,-0.0336,-0.0312,-0.0381,-0.0416,-0.0383,-0.0421,-0.0411,-0.0389,-0.0377,-0.0282,-0.0265,-0.0216,-0.0192,-0.0127,-0.0027,0.0024,-0.0031,0.0136,0.0141,0.0163,0.0181,0.0154,0.0243,0.0142,0.0144,0.0145,0,-0.036,-0.0358,-0.0448,-0.047,-0.0478,-0.052,-0.0535,-0.0552,-0.0495,-0.0465,-0.0395,-0.033,-0.0233,-0.0201,-0.003,-0.0069,0.0014,0.009,0.0097,0.0174,0.0196,0.0242,0.0266,0.0162,0.016,0.0159,0.0158,0,-0.0462,-0.0474,-0.055,-0.0562,-0.0576,-0.0597,-0.0608,-0.0589,-0.0584,-0.0512,-0.0487,-0.0365,-0.0301,-0.0173,-0.0015,-0.0023,0.0172,0.018,0.0289,0.0291,0.0327,0.0331,0.0291,0.0291,0.0291,0.029,0.029,0,-0.0554,-0.0592,-0.0599,-0.0632,-0.0687,-0.0683,-0.0722,-0.0702,-0.0662,-0.0643,-0.0537,-0.0474,-0.0289,-0.0154,-0.0023,0.0172,0.0168,0.0296,0.0329,0.0292,0.0292,0.0273,0.027,0.0294,0.0293,0.0293,0.0292,0,-0.0669,-0.0683,-0.0743,-0.0748,-0.0756,-0.0804,-0.0802,-0.0812,-0.0764,-0.0731,-0.071,-0.0547,-0.036,-0.0176,0.0048,0.0165,0.0339,0.0401,0.0337,0.0362,0.0414,0.0405,0.0533,0.0535,0.0537,0.0538,0.054,0,-0.074,-0.0799,-0.0842,-0.0867,-0.0863,-0.0901,-0.093,-0.0891,-0.0878,-0.0762,-0.0743,-0.0561,-0.0404,-0.0064,0.0168,0.0407,0.0397,0.0508,0.0496,0.0425,0.0444,0.0431,0.042,0.0496,0.0497,0.0498,0.0498,0,-0.0828,-0.0866,-0.0894,-0.0961,-0.1001,-0.1024,-0.1038,-0.1037,-0.097,-0.09,-0.0758,-0.0621,-0.0294,-0.0003,0.0296,0.0424,0.047,0.0532,0.0497,0.0438,0.0399,0.0414,0.0403,0.0505,0.0504,0.0504,0.0503,0.0503,-0.089,-0.0934,-0.0996,-0.1044,-0.1089,-0.1124,-0.1127,-0.1087,-0.1044,-0.0887,-0.0765,-0.051,-0.0261,0.0201,0.0397,0.057,0.0563,0.0606,0.06,0.0595,0.0571,0.0538,0.0665,0.0665,0.0665,0.0665,0.0666,0,-0.0952,-0.0999,-0.1059,-0.1121,-0.1169,-0.1175,-0.1175,-0.1124,-0.103,-0.0849,-0.0663,-0.0352,-0.0037,0.0211,0.0506,0.0672,0.0638,0.0681,0.0609,0.0602,0.0596,0.0569,0.0664,0.0665,0.0665,0.0666,0,0,-0.0984,-0.1058,-0.108,-0.1166,-0.1204,-0.1226,-0.1212,-0.1107,-0.0956,-0.0729,-0.052,-0.0274,0.0013,0.0223,0.0414,0.056,0.0534,0.0559,0.0543,0.0428,0.042,0.0535,0.0485,0,0,0,0,0]}],[{"header":{"parameterUnit":"m.s-1","parameterCategory":2,"la1":30.2991,"la2":30.254,"lo1":-89.0895,"lo2":-89.0444,"dy":0.0017,"dx":0.0017,"nx":28,"ny":28,"refTime":"2023-11-03T03:00:00:Z","depth":"4","parameterNumber":2,"parameterNumberName":"U-component_of_CURRENTS"},"data":[0,0,0,0,0,0,0,0,0,0,0,0,0,0,0,0,0,0,0,0,0,0,0,0,0,0,0,0,0,0,0,0,0,0,0,0,0,0,0,0,0,0,0,0,0,0,0,0,0,0,0,0,0,0,0,0,0,0,-0.1057,-0.1059,0,-0.1145,-0.1146,-0.1146,-0.1169,-0.1169,-0.1169,-0.1169,-0.127,-0.1273,-0.1275,0,0,0,0,0,0,0,0,0,0,0,0,0,-0.0949,-0.095,-0.1057,-0.1059,-0.106,-0.1145,-0.1146,-0.1147,-0.1169,-0.1169,-0.1169,-0.1169,-0.1269,-0.1272,-0.1275,0,0,0,0,0,0,0,0,0,0,0,0,0,-0.1006,-0.095,-0.1057,-0.1086,-0.109,-0.1145,-0.1146,-0.1147,-0.1169,-0.1169,-0.1169,-0.1169,-0.1268,-0.1272,-0.1276,-0.13,0,0,-0.1288,-0.129,0,0,0,0,0,0,0,0,-0.1003,-0.1009,-0.108,-0.1085,-0.1089,-0.1152,-0.1145,-0.1201,-0.1169,-0.1133,-0.1169,-0.1169,-0.1236,-0.1242,-0.125,-0.1304,-0.1309,-0.1288,-0.1291,-0.1293,-0.1294,0,0,0,0,0,0,0,-0.0999,-0.1006,-0.1086,-0.1082,-0.1088,-0.111,-0.1117,-0.1155,-0.1178,-0.1136,-0.1139,-0.1159,-0.1237,-0.1246,-0.1252,-0.131,-0.1288,-0.1292,-0.1294,-0.1296,-0.1466,-0.1468,0,0,0,0,0,0,-0.0999,-0.1002,-0.1083,-0.1089,-0.1052,-0.1112,-0.112,-0.1126,-0.1178,-0.1187,-0.1159,-0.116,-0.1239,-0.1248,-0.1256,-0.1365,-0.1292,-0.1296,-0.1299,-0.1464,-0.1467,-0.1469,0,0,0,0,0,0,-0.0996,-0.1004,-0.1079,-0.1053,-0.1065,-0.1114,-0.1122,-0.1128,-0.1158,-0.1196,-0.1205,-0.1185,-0.1239,-0.1251,-0.1335,-0.1366,-0.1298,-0.1302,-0.1461,-0.1465,-0.1468,-0.1533,0,0,0,0,0,0,-0.0992,-0.1002,-0.1016,-0.1053,-0.1067,-0.1121,-0.1122,-0.113,-0.1172,-0.1174,-0.1221,-0.1229,-0.124,-0.133,-0.1339,-0.137,-0.1305,-0.1459,-0.1463,-0.1467,-0.1528,-0.1538,-0.1547,0,0,0,0,0,-0.0987,-0.1,-0.1015,-0.1026,-0.108,-0.1123,-0.1131,-0.1162,-0.1174,-0.1188,-0.1245,-0.1229,-0.136,-0.1336,-0.1346,-0.1379,-0.1457,-0.1462,-0.1466,-0.1524,-0.1536,-0.1546,0,0,0,0,0,0,-0.0963,-0.1006,-0.1023,-0.1049,-0.109,-0.1129,-0.1153,-0.1176,-0.1229,-0.1242,-0.1271,-0.1284,-0.1362,-0.1369,-0.1341,-0.1439,-0.14,-0.1407,-0.144,-0.1452,-0.1461,-0.1432,-0.1308,0,0,0,0,0,-0.0965,-0.0987,-0.1031,-0.1058,-0.1076,-0.1119,-0.1145,-0.117,-0.122,-0.1242,-0.1288,-0.1336,-0.1386,-0.1419,-0.1457,-0.1524,-0.1515,-0.1548,-0.1557,-0.1564,-0.1549,-0.1607,-0.1619,-0.1485,-0.1485,-0.1484,0,0,-0.0968,-0.0996,-0.101,-0.1056,-0.1087,-0.1132,-0.1133,-0.1179,-0.1231,-0.1248,-0.1338,-0.1373,-0.1411,-0.1485,-0.1518,-0.1499,-0.1595,-0.1571,-0.1577,-0.1557,-0.1613,-0.1626,-0.1637,-0.1488,-0.1487,-0.1487,0,0,-0.0985,-0.1004,-0.1029,-0.1063,-0.1121,-0.1152,-0.1171,-0.123,-0.1265,-0.1354,-0.138,-0.1434,-0.1522,-0.1548,-0.1573,-0.1655,-0.164,-0.1676,-0.1705,-0.1762,-0.1773,-0.1782,-0.1768,-0.1776,-0.1683,-0.1683,-0.1683,0,-0.0991,-0.1022,-0.1046,-0.1084,-0.1123,-0.1165,-0.121,-0.1257,-0.1345,-0.1388,-0.1391,-0.1523,-0.1542,-0.1629,-0.1651,-0.1671,-0.169,-0.166,-0.1773,-0.1782,-0.1791,-0.1774,-0.1781,-0.1687,-0.1686,-0.1686,-0.1686,0,-0.1018,-0.1059,-0.1077,-0.114,-0.1187,-0.1227,-0.1296,-0.1358,-0.141,-0.1458,-0.1558,-0.1598,-0.1668,-0.1686,-0.1692,-0.1772,-0.1758,-0.1776,-0.174,-0.1808,-0.1786,-0.1792,-0.1692,-0.1691,-0.169,-0.1689,0,0,-0.0999,-0.1078,-0.1092,-0.1137,-0.1216,-0.1263,-0.1352,-0.1439,-0.151,-0.1583,-0.1669,-0.1731,-0.1745,-0.1772,-0.1793,-0.1831,-0.1886,-0.1834,-0.1835,-0.1808,-0.1983,-0.1831,-0.1823,-0.1951,-0.1954,-0.1955,-0.1934,0,-0.1017,-0.1095,-0.1131,-0.1229,-0.1275,-0.1342,-0.1426,-0.1518,-0.1591,-0.1688,-0.1728,-0.1811,-0.1785,-0.1827,-0.1863,-0.1892,-0.1913,-0.1887,-0.1928,-0.1927,-0.1777,-0.1829,-0.1962,-0.1939,-0.194,-0.1942,-0.1942,0,-0.1027,-0.1087,-0.1169,-0.1284,-0.1311,-0.138,-0.1517,-0.1596,-0.1721,-0.1779,-0.1855,-0.1894,-0.1951,-0.1927,-0.1982,-0.1983,-0.1976,-0.1981,-0.1982,-0.1816,-0.1789,-0.1863,-0.1954,-0.1953,-0.1952,-0.1952,-0.1951,0,-0.1008,-0.1114,-0.1182,-0.1219,-0.1353,-0.1416,-0.1495,-0.1626,-0.1704,-0.1837,-0.1901,-0.1979,-0.2023,-0.2053,-0.2029,-0.2036,-0.2075,-0.2087,-0.1933,-0.192,-0.2033,-0.2023,-0.212,-0.2121,-0.2121,-0.2121,-0.2121,0,-0.1003,-0.1068,-0.1184,-0.1228,-0.1334,-0.1425,-0.1544,-0.1637,-0.1766,-0.1852,-0.1939,-0.1998,-0.2067,-0.209,-0.2067,-0.1996,-0.2103,-0.1923,-0.1915,-0.2057,-0.2051,-0.2035,-0.2026,-0.212,-0.212,-0.212,-0.212,0,-0.0977,-0.1044,-0.1136,-0.1277,-0.1326,-0.1408,-0.1563,-0.1645,-0.1769,-0.1882,-0.1926,-0.2034,-0.2045,-0.2063,-0.2091,-0.2018,-0.1983,-0.1931,-0.2034,-0.2034,-0.1776,-0.1771,-0.1761,-0.1755,-0.1751,-0.1747,-0.1744,0,-0.0974,-0.1011,-0.1158,-0.1219,-0.1286,-0.1411,-0.1493,-0.1637,-0.1714,-0.1876,-0.1917,-0.1979,-0.2021,-0.1912,-0.1952,-0.1885,-0.1863,-0.1828,-0.1829,-0.1751,-0.1745,-0.1746,-0.1747,-0.1737,-0.1736,-0.1734,-0.1733,0,-0.0962,-0.1006,-0.1076,-0.1195,-0.1289,-0.1393,-0.1514,-0.1559,-0.1709,-0.1831,-0.1847,-0.1837,-0.1838,-0.1812,-0.1764,-0.1726,-0.185,-0.1781,-0.179,-0.1791,-0.1722,-0.1721,-0.1727,-0.1718,-0.172,-0.1721,-0.1722,0,-0.0936,-0.0975,-0.1054,-0.1154,-0.1268,-0.1342,-0.1415,-0.1485,-0.1563,-0.1722,-0.1713,-0.1757,-0.1822,-0.1728,-0.1693,-0.1631,-0.1607,-0.156,-0.1581,-0.1598,-0.1553,-0.1442,-0.1337,0,0,0,0,0,-0.0904,-0.0929,-0.1015,-0.1112,-0.1219,-0.1279,-0.1418,-0.1486,-0.1615,-0.158,-0.164,-0.162,-0.1561,-0.1584,-0.148,-0.1623,-0.162,-0.1497,-0.158,-0.1631,-0.1649,-0.161,0,0,0,0,0,0,-0.0872,-0.0933,-0.098,-0.1051,-0.1101,-0.1204,-0.1279,-0.1366,-0.1354,-0.1473,-0.1438,-0.1516,-0.1472,-0.1578,-0.1442,-0.1446,-0.1464,-0.1523,-0.1518,-0.1621,-0.1637,-0.1652,-0.1618,0,0,0,0,0]},{"header":{"parameterUnit":"m.s-1","parameterCategory":2,"la1":30.2991,"la2":30.254,"lo1":-89.0895,"lo2":-89.0444,"dy":0.0017,"dx":0.0017,"nx":28,"ny":28,"refTime":"2023-11-03T03:00:00:Z","depth":"4","parameterNumber":3,"parameterNumberName":"V-component_of_CURRENTS"},"data":[0,0,0,0,0,0,0,0,0,0,0,0,0,0,0,0,0,0,0,0,0,0,0,0,0,0,0,0,0,0,0,0,0,0,0,0,0,0,0,0,0,0,0,0,0,0,0,0,0,0,0,0,0,0,0,0,0,0,-0.0124,-0.0123,0,-0.01,-0.0099,-0.0099,-0.0086,-0.0085,-0.0085,-0.0085,-0.0035,-0.0034,-0.0033,0,0,0,0,0,0,0,0,0,0,0,0,0,-0.0111,-0.0112,-0.0124,-0.0123,-0.0123,-0.01,-0.0099,-0.0099,-0.0086,-0.0085,-0.0085,-0.0085,-0.0036,-0.0034,-0.0033,0,0,0,0,0,0,0,0,0,0,0,0,0,-0.0106,-0.0112,-0.0124,-0.0112,-0.0111,-0.01,-0.0099,-0.0099,-0.0086,-0.0085,-0.0085,-0.0085,-0.0036,-0.0034,-0.0033,-0.0027,0,0,-0.0027,-0.0027,0,0,0,0,0,0,0,0,-0.0106,-0.0107,-0.0114,-0.0113,-0.0111,-0.0094,-0.0077,-0.0073,-0.0086,-0.0097,-0.0085,-0.0085,-0.0052,-0.0049,-0.0047,-0.0025,-0.0022,-0.0027,-0.0026,-0.0025,-0.0025,0,0,0,0,0,0,0,-0.0107,-0.0107,-0.0115,-0.0114,-0.0112,-0.0092,-0.0092,-0.0076,-0.0077,-0.0096,-0.0094,-0.009,-0.0051,-0.0049,-0.0046,-0.0022,-0.0027,-0.0026,-0.0025,-0.0024,0.0021,0.0022,0,0,0,0,0,0,-0.011,-0.0108,-0.0116,-0.0115,-0.0107,-0.0093,-0.0092,-0.0101,-0.0077,-0.0073,-0.009,-0.0089,-0.0052,-0.0048,-0.0044,-0.0032,-0.0025,-0.0024,-0.0023,0.0021,0.0021,0.0022,0,0,0,0,0,0,-0.011,-0.0112,-0.0117,-0.0109,-0.0108,-0.0093,-0.0103,-0.0101,-0.0098,-0.0073,-0.0069,-0.0089,-0.0052,-0.0046,-0.0027,-0.003,-0.0023,-0.0021,0.0021,0.0021,0.0022,-0.0011,0,0,0,0,0,0,-0.011,-0.0112,-0.0116,-0.011,-0.0108,-0.0116,-0.0103,-0.01,-0.0095,-0.0093,-0.0071,-0.0066,-0.0051,-0.0029,-0.0025,-0.0028,-0.002,0.0021,0.0021,0.0021,-0.001,-0.0012,-0.0013,0,0,0,0,0,-0.011,-0.012,-0.0117,-0.0117,-0.0116,-0.0116,-0.0114,-0.0102,-0.0095,-0.0098,-0.0077,-0.0067,-0.0024,-0.0028,-0.0023,-0.0025,0.0021,0.0021,0.0021,-0.0009,-0.0011,-0.0013,0,0,0,0,0,0,-0.0114,-0.0119,-0.0115,-0.0125,-0.0122,-0.0113,-0.0115,-0.0104,-0.0091,-0.0088,-0.0064,-0.0058,-0.0046,-0.0027,-0.0031,-0.001,-0.0,0.0001,-0.0026,-0.0027,-0.0029,-0.0031,-0.0018,0,0,0,0,0,-0.0117,-0.0127,-0.0125,-0.0131,-0.0135,-0.0125,-0.0121,-0.0114,-0.0102,-0.0097,-0.0079,-0.0057,-0.0041,-0.0027,-0.0014,0.0002,0.0033,0.0005,0.0003,0.0001,0.0004,0.0057,0.0061,0.0023,0.0023,0.0023,0,0,-0.0118,-0.0122,-0.0126,-0.0132,-0.0132,-0.0138,-0.0124,-0.0125,-0.0122,-0.0092,-0.0085,-0.0066,-0.0039,-0.0027,-0.0019,-0.001,0.0027,0.0002,0.0,0.0004,0.0058,0.0062,0.0066,0.0023,0.0023,0.0023,0,0,-0.0133,-0.0135,-0.0153,-0.0154,-0.0156,-0.0146,-0.0148,-0.0142,-0.0136,-0.0123,-0.0103,-0.0079,-0.0058,-0.0034,-0.002,-0.0018,0.0011,-0.002,-0.0024,0.0028,0.0031,0.0035,0.0071,0.0078,-0.0015,-0.0015,-0.0015,0,-0.0131,-0.0157,-0.0154,-0.0173,-0.0175,-0.0153,-0.0169,-0.0157,-0.014,-0.0134,-0.0125,-0.0082,-0.0059,-0.0032,-0.0032,-0.0022,0.0006,-0.0021,0.0026,0.003,0.0034,0.0071,0.0079,-0.0016,-0.0016,-0.0016,-0.0016,0,-0.0162,-0.018,-0.0192,-0.0207,-0.0207,-0.0215,-0.0203,-0.0196,-0.018,-0.0162,-0.014,-0.0103,-0.0075,-0.0064,-0.0047,-0.001,-0.0002,0.0011,0.0029,0.0036,0.0074,0.0083,-0.0018,-0.0018,-0.0017,-0.0017,0,0,-0.0162,-0.0206,-0.0209,-0.023,-0.0227,-0.0234,-0.0228,-0.0219,-0.0216,-0.0183,-0.0172,-0.013,-0.0106,-0.0087,-0.0058,-0.0009,0.0045,0.0012,0.0016,0.0045,0.0149,0.0134,0.0143,0.0066,0.0068,0.0069,0.016,0,-0.0185,-0.0237,-0.0242,-0.0273,-0.03,-0.0281,-0.0282,-0.0265,-0.0241,-0.0221,-0.0168,-0.0149,-0.0115,-0.0105,-0.0047,0.0018,0.0069,0.0018,0.0141,0.0144,0.0128,0.0153,0.0074,0.0167,0.0169,0.0171,0.0172,0,-0.0213,-0.0245,-0.0296,-0.0329,-0.0338,-0.0344,-0.0341,-0.0338,-0.0298,-0.0281,-0.0235,-0.0195,-0.0124,-0.0098,0.0037,0.0001,0.0073,0.013,0.0135,0.014,0.0147,0.0163,0.0189,0.0188,0.0187,0.0186,0.0185,0,-0.0234,-0.0278,-0.0323,-0.0334,-0.0364,-0.0376,-0.0379,-0.0357,-0.0364,-0.0315,-0.0306,-0.0215,-0.0173,-0.0065,0.0055,0.0048,0.0205,0.0211,0.0266,0.0265,0.0265,0.0261,0.0312,0.0311,0.0311,0.0311,0.0311,0,-0.0265,-0.0296,-0.0339,-0.037,-0.0415,-0.0414,-0.0444,-0.0435,-0.0416,-0.0418,-0.0341,-0.0308,-0.0161,-0.0057,0.0053,0.0189,0.0209,0.0273,0.0294,0.0248,0.024,0.0272,0.0266,0.0314,0.0314,0.0313,0.0312,0,-0.0291,-0.032,-0.038,-0.0425,-0.0439,-0.0472,-0.0506,-0.0524,-0.0496,-0.0491,-0.0479,-0.0368,-0.0229,-0.0085,0.0098,0.0176,0.031,0.0352,0.0286,0.0301,0.0335,0.0326,0.0422,0.0422,0.0423,0.0423,0.0423,0,-0.0314,-0.0351,-0.043,-0.0474,-0.05,-0.0544,-0.0579,-0.0572,-0.058,-0.0522,-0.0516,-0.0389,-0.03,-0.0043,0.0104,0.0309,0.0334,0.0393,0.0373,0.0338,0.035,0.034,0.0332,0.0423,0.0424,0.0424,0.0424,0,-0.0357,-0.0389,-0.0442,-0.0537,-0.0591,-0.0647,-0.0681,-0.0688,-0.0664,-0.064,-0.0527,-0.0392,-0.0235,-0.0038,0.0117,0.0264,0.035,0.0397,0.0397,0.0378,0.0341,0.035,0.0341,0.0425,0.0425,0.0424,0.0424,0,-0.0383,-0.0434,-0.0514,-0.0589,-0.0669,-0.0725,-0.0735,-0.0716,-0.0709,-0.0621,-0.0577,-0.0396,-0.028,-0.006,0.0088,0.0225,0.0254,0.0289,0.0296,0.0296,0.0227,0.016,0.0214,0,0,0,0,0,-0.0401,-0.0468,-0.0557,-0.0651,-0.0731,-0.0769,-0.0797,-0.0787,-0.0747,-0.0673,-0.0619,-0.0464,-0.0222,-0.0105,0.0031,0.0067,0.0253,0.0227,0.0289,0.043,0.0429,0.0368,0,0,0,0,0,0,-0.042,-0.0508,-0.0564,-0.0682,-0.0747,-0.0828,-0.0843,-0.0813,-0.075,-0.068,-0.0538,-0.045,-0.0208,-0.0301,0.0028,0.007,0.0124,0.0348,0.0351,0.0431,0.043,0.0429,0.0366,0,0,0,0,0]}]]